SV1BYK-2 Weather Reports


Display with metric or nautical units.
time (UTC)temp
F
wind
direction
speed
MPH
gust
MPH
rain 1hr
in
rain 24hr
in
rain mn
in
humidity
%
barometer
mb
20260905200903 82 0 0.0 0.0 0.00 0.00 0.00 36 1010.2
20260905200004 82 0 0.0 0.0 0.00 0.00 0.00 35 1010.4
20260905195403 83 292 0.0 2.0 0.00 0.00 0.00 34 1010.6
20260905194504 83 0 0.0 0.0 0.00 0.00 0.00 35 1010.3
20260905193813 83 0 0.0 0.0 0.00 0.00 0.00 34 1010.6
20260905192916 83 292 0.0 2.0 0.00 0.00 0.00 34 1010.3
20260905191804 83 292 1.0 2.0 0.00 0.00 0.00 34 1010.4
20260905191115 83 298 0.0 4.0 0.00 0.00 0.00 34 1010.5
20260905190004 84 280 2.0 4.0 0.00 0.00 0.00 34 1010.5
20260905185614 84 271 1.0 2.0 0.00 0.00 0.00 34 1010.5
20260905184717 84 310 0.0 4.0 0.00 0.00 0.00 35 1010.1
20260905183814 84 292 0.0 4.0 0.00 0.00 0.00 35 1010.2
20260905182704 84 268 2.0 4.0 0.00 0.00 0.00 35 1009.9
20260905181804 84 280 0.0 4.0 0.00 0.00 0.00 34 1010.1
20260905181116 84 274 0.0 2.0 0.00 0.00 0.00 34 1010.0
20260905180213 85 284 1.0 6.0 0.00 0.00 0.00 34 1010.1
20260905175404 85 242 1.0 2.0 0.00 0.00 0.00 34 1010.0
20260905174717 85 249 2.0 4.0 0.00 0.00 0.00 34 1009.8
20260905173815 85 248 1.0 4.0 0.00 0.00 0.00 34 1009.8
20260905172917 85 249 1.0 4.0 0.00 0.00 0.00 33 1009.9
20260905171803 86 255 2.0 4.0 0.00 0.00 0.00 34 1009.5
20260905170904 86 230 2.0 4.0 0.00 0.00 0.00 34 1009.5
20260905170214 86 239 2.0 4.0 0.00 0.00 0.00 34 1009.5
20260905165404 87 236 2.0 4.0 0.00 0.00 0.00 33 1009.6
20260905164713 87 234 2.0 4.0 0.00 0.00 0.00 32 1009.5
20260905163603 89 249 2.0 8.0 0.00 0.00 0.00 30 1009.5
20260905162918 90 251 3.0 8.0 0.00 0.00 0.00 29 1009.5
20260905162015 91 246 2.0 4.0 0.00 0.00 0.00 28 1009.6
20260905161117 91 249 2.0 9.0 0.00 0.00 0.00 28 1009.3
20260905160215 91 241 4.0 9.0 0.00 0.00 0.00 27 1009.6
20260905155616 92 244 3.0 6.0 0.00 0.00 0.00 27 1009.8
20260905154504 93 302 1.0 13.0 0.00 0.00 0.00 26 1009.5
20260905153816 92 339 2.0 13.0 0.00 0.00 0.00 27 1009.8
20260905152913 92 290 3.0 17.0 0.00 0.00 0.00 27 1009.6
20260905152016 93 280 2.0 14.0 0.00 0.00 0.00 26 1009.7
20260905151113 92 285 8.0 16.0 0.00 0.00 0.00 27 1009.6
20260905150215 93 318 4.0 14.0 0.00 0.00 0.00 27 1009.7
20260905145403 94 304 2.0 11.0 0.00 0.00 0.00 26 1009.3
20260905144503 94 331 2.0 17.0 0.00 0.00 0.00 26 1009.5
20260905143816 93 307 3.0 18.0 0.00 0.00 0.00 26 1009.5
20260905142704 93 301 3.0 23.0 0.00 0.00 0.00 27 1009.4
20260905142016 91 287 13.0 20.0 0.00 0.00 0.00 28 1009.4
20260905141113 93 274 4.0 18.0 0.00 0.00 0.00 27 1009.4
20260905140004 93 298 5.0 18.0 0.00 0.00 0.00 27 1009.6
20260905135617 93 304 8.0 18.0 0.00 0.00 0.00 27 1009.3
20260905134715 92 311 8.0 18.0 0.00 0.00 0.00 27 1009.4
20260905133817 91 285 9.0 15.0 0.00 0.00 0.00 28 1009.4
20260905132914 95 284 4.0 15.0 0.00 0.00 0.00 28 1009.5
20260905132017 96 280 2.0 9.0 0.00 0.00 0.00 28 1009.5
20260905131114 96 261 3.0 9.0 0.00 0.00 0.00 27 1009.6
20260905130004 95 239 4.0 8.0 0.00 0.00 0.00 28 1009.5
20260905125404 95 244 3.0 7.0 0.00 0.00 0.00 28 1009.6
20260905124715 95 240 2.0 7.0 0.00 0.00 0.00 28 1009.6
20260905123603 94 255 2.0 7.0 0.00 0.00 0.00 28 1009.4
20260905122703 93 249 3.0 11.0 0.00 0.00 0.00 28 1009.8
20260905121803 94 237 2.0 7.0 0.00 0.00 0.00 28 1009.7
20260905120903 94 261 2.0 8.0 0.00 0.00 0.00 28 1009.8
20260905120217 94 247 4.0 8.0 0.00 0.00 0.00 29 1009.7
20260905115403 93 261 3.0 8.0 0.00 0.00 0.00 29 1009.8
20260905114504 93 253 3.0 8.0 0.00 0.00 0.00 29 1010.0
20260905113813 93 264 2.0 8.0 0.00 0.00 0.00 30 1010.1
20260905112704 92 226 3.0 8.0 0.00 0.00 0.00 31 1010.2
20260905111803 92 235 4.0 7.0 0.00 0.00 0.00 30 1010.1
20260905110903 92 230 3.0 7.0 0.00 0.00 0.00 31 1010.2
20260905110218 92 245 4.0 11.0 0.00 0.00 0.00 30 1010.2
20260905105403 91 238 5.0 11.0 0.00 0.00 0.00 31 1010.3
20260905104717 92 261 2.0 7.0 0.00 0.00 0.00 30 1009.8
20260905103814 91 260 3.0 8.0 0.00 0.00 0.00 31 1010.2
20260905102704 92 251 3.0 8.0 0.00 0.00 0.00 31 1010.1
20260905101804 91 243 2.0 9.0 0.00 0.00 0.00 31 1010.2
20260905101116 91 247 4.0 11.0 0.00 0.00 0.00 31 1010.2
20260905100004 91 256 2.0 14.0 0.00 0.00 0.00 30 1010.4
20260905095615 91 258 4.0 14.0 0.00 0.00 0.00 30 1010.3
20260905094503 91 292 4.0 16.0 0.00 0.00 0.00 31 1010.2
20260905093815 91 211 3.0 11.0 0.00 0.00 0.00 30 1010.3
20260905092917 91 286 3.0 16.0 0.00 0.00 0.00 31 1010.5
20260905092014 90 284 4.0 16.0 0.00 0.00 0.00 33 1010.6
20260905091117 90 274 4.0 15.0 0.00 0.00 0.00 33 1010.5
20260905090214 89 236 4.0 9.0 0.00 0.00 0.00 33 1010.6
20260905085616 90 302 4.0 16.0 0.00 0.00 0.00 33 1010.7
20260905084504 90 263 4.0 11.0 0.00 0.00 0.00 34 1010.7
20260905083815 90 270 2.0 11.0 0.00 0.00 0.00 33 1010.7
20260905082918 89 264 2.0 13.0 0.00 0.00 0.00 34 1010.5
20260905082015 89 252 4.0 20.0 0.00 0.00 0.00 34 1010.7
20260905080903 89 244 4.0 14.0 0.00 0.00 0.00 34 1010.6
20260905080004 88 279 4.0 21.0 0.00 0.00 0.00 34 1010.7
20260905075616 88 229 3.0 11.0 0.00 0.00 0.00 34 1010.8
20260905074504 88 289 4.0 13.0 0.00 0.00 0.00 34 1010.7
20260905073816 88 262 2.0 8.0 0.00 0.00 0.00 35 1010.5
20260905072703 88 187 2.0 9.0 0.00 0.00 0.00 35 1010.4
20260905071803 87 263 4.0 8.0 0.00 0.00 0.00 35 1010.6
20260905070903 87 227 5.0 8.0 0.00 0.00 0.00 35 1010.3
20260905070215 87 229 3.0 11.0 0.00 0.00 0.00 35 1010.2
20260905065617 87 246 4.0 9.0 0.00 0.00 0.00 34 1010.4
20260905064503 87 246 2.0 6.0 0.00 0.00 0.00 35 1010.5
20260905063816 86 247 3.0 7.0 0.00 0.00 0.00 35 1010.4
20260905062704 86 247 2.0 11.0 0.00 0.00 0.00 35 1010.6
20260905061804 86 289 3.0 16.0 0.00 0.00 0.00 35 1010.3
20260905060904 85 296 3.0 11.0 0.00 0.00 0.00 35 1010.4
20260905060216 85 220 4.0 11.0 0.00 0.00 0.00 38 1010.5
20260905055617 84 296 1.0 6.0 0.00 0.00 0.00 41 1010.3
20260905054503 83 312 1.0 11.0 0.00 0.00 0.00 44 1010.5
20260905053603 82 306 8.0 11.0 0.00 0.00 0.00 45 1010.2
20260905052703 82 313 1.0 14.0 0.00 0.00 0.00 46 1010.1
20260905052017 81 303 8.0 17.0 0.00 0.00 0.00 47 1010.1
20260905050904 81 311 4.0 16.0 0.00 0.00 0.00 48 1010.0
20260905050004 80 322 4.0 11.0 0.00 0.00 0.00 49 1010.2
20260905045404 80 326 4.0 11.0 0.00 0.00 0.00 49 1010.0
20260905044715 80 306 3.0 6.0 0.00 0.00 0.00 50 1010.0
20260905043603 79 301 2.0 6.0 0.00 0.00 0.00 51 1010.2
20260905042915 79 289 2.0 7.0 0.00 0.00 0.00 52 1010.2
20260905041803 78 281 4.0 7.0 0.00 0.00 0.00 52 1009.7
20260905041115 79 288 3.0 4.0 0.00 0.00 0.00 52 1009.8
20260905040003 79 314 1.0 4.0 0.00 0.00 0.00 52 1009.6
20260905035614 79 309 2.0 6.0 0.00 0.00 0.00 52 1009.5
20260905034716 79 319 4.0 8.0 0.00 0.00 0.00 52 1009.5
20260905033604 79 280 6.0 7.0 0.00 0.00 0.00 53 1009.1
20260905032916 78 312 1.0 7.0 0.00 0.00 0.00 54 1009.3
20260905031804 79 302 2.0 9.0 0.00 0.00 0.00 54 1009.3
20260905031115 79 244 1.0 4.0 0.00 0.00 0.00 54 1009.1
20260905030213 79 307 1.0 11.0 0.00 0.00 0.00 54 1009.1
20260905025403 79 319 6.0 11.0 0.00 0.00 0.00 53 1009.1
20260905024717 79 302 2.0 9.0 0.00 0.00 0.00 52 1009.3
20260905023604 80 310 6.0 11.0 0.00 0.00 0.00 50 1009.2
20260905022916 79 6 1.0 2.0 0.00 0.00 0.00 47 1009.1
20260905022014 79 320 0.0 4.0 0.00 0.00 0.00 46 1009.4
20260905021116 78 67 0.0 2.0 0.00 0.00 0.00 47 1009.2
20260905020213 78 54 0.0 2.0 0.00 0.00 0.00 46 1009.3
20260905015403 79 331 0.0 2.0 0.00 0.00 0.00 45 1009.4
20260905014503 79 315 0.0 4.0 0.00 0.00 0.00 45 1009.5
20260905013603 80 315 1.0 4.0 0.00 0.00 0.00 44 1009.5
20260905012917 79 306 1.0 4.0 0.00 0.00 0.00 44 1009.4
20260905011803 80 307 4.0 6.0 0.00 0.00 0.00 44 1009.3
20260905010904 80 289 2.0 4.0 0.00 0.00 0.00 43 1009.3
20260905010004 80 288 0.0 4.0 0.00 0.00 0.00 43 1009.2
20260905005616 80 266 0.0 2.0 0.00 0.00 0.00 43 1009.2
20260905004713 80 286 1.0 2.0 0.00 0.00 0.00 43 1009.3
20260905003603 80 292 1.0 2.0 0.00 0.00 0.00 43 1009.1
20260905002912 80 292 0.0 2.0 0.00 0.00 0.00 42 1009.1
20260905001803 80 292 0.0 2.0 0.00 0.00 0.00 42 1009.3
20260905000903 80 292 0.0 2.0 0.00 0.00 0.00 42 1009.4
20260905000215 80 293 2.0 2.0 0.00 0.00 0.00 42 1009.4
20260904235616 80 330 0.0 2.0 0.00 0.00 0.00 42 1009.3
20260904234504 80 90 0.0 2.0 0.00 0.00 0.00 42 1009.5
20260904233816 80 90 0.0 2.0 0.00 0.00 0.00 41 1009.4
20260904232703 79 90 0.0 2.0 0.00 0.00 0.00 43 1009.3
20260904231803 80 90 1.0 2.0 0.00 0.00 0.00 42 1009.4
20260904230903 80 98 0.0 2.0 0.00 0.00 0.00 41 1009.6
20260904230004 80 0 0.0 0.0 0.00 0.00 0.00 41 1009.6
20260904225617 80 0 0.0 0.0 0.00 0.00 0.00 41 1009.4
20260904224503 80 180 0.0 2.0 0.00 0.00 0.00 41 1009.5
20260904223817 80 270 0.0 2.0 0.00 0.00 0.00 40 1009.7
20260904222704 81 283 1.0 2.0 0.00 0.00 0.00 40 1009.6
20260904222016 81 297 0.0 4.0 0.00 0.00 0.00 40 1009.7
20260904221113 82 280 1.0 4.0 0.00 0.00 0.00 39 1009.8
20260904220004 81 225 2.0 2.0 0.00 0.00 0.00 40 1009.8
20260904215403 81 209 0.0 2.0 0.00 0.00 0.00 40 1009.7
20260904214715 80 202 0.0 2.0 0.00 0.00 0.00 42 1010.1
20260904213817 80 0 0.0 0.0 0.00 0.00 0.00 42 1009.6
20260904212914 80 0 0.0 0.0 0.00 0.00 0.00 42 1009.8
20260904211803 81 202 0.0 2.0 0.00 0.00 0.00 41 1009.9
20260904210904 81 202 1.0 2.0 0.00 0.00 0.00 41 1009.6
20260904210222 80 0 0.0 0.0 0.00 0.00 0.00 42 1009.6
20260904205613 80 0 0.0 0.0 0.00 0.00 0.00 42 1009.7
20260904204504 81 0 0.0 0.0 0.00 0.00 0.00 42 1010.0
20260904203813 81 0 0.0 0.0 0.00 0.00 0.00 42 1010.0
20260904202915 81 247 0.0 2.0 0.00 0.00 0.00 42 1009.6